| time (UTC) | temp C | wind direction | speed KPH | gust KPH | rain 1hr cm | rain 24hr cm | rain mn cm | humidity % | barometer mb |
| 20260506180059 | 13 | 302 | 20.9 | 29.0 | 0.00 | 2.29 | 0.58 | 57 | 1012.2 |
| 20260506174558 | 13 | 316 | 19.3 | 25.7 | 0.00 | 2.41 | 0.58 | 50 | 1012.3 |
| 20260506173126 | 13 | 313 | 14.5 | 22.5 | 0.00 | 2.41 | 0.58 | 53 | 1012.6 |
| 20260506171559 | 13 | 302 | 14.5 | 22.5 | 0.00 | 2.41 | 0.58 | 52 | 1012.5 |
| 20260506170107 | 13 | 296 | 14.5 | 33.8 | 0.00 | 2.41 | 0.58 | 56 | 1012.7 |
| 20260506164553 | 13 | 319 | 17.7 | 25.7 | 0.00 | 2.41 | 0.58 | 59 | 1012.6 |
| 20260506163056 | 12 | 303 | 17.7 | 25.7 | 0.00 | 2.41 | 0.58 | 55 | 1012.6 |
| 20260506161550 | 12 | 312 | 16.1 | 24.1 | 0.00 | 2.41 | 0.58 | 61 | 1012.5 |
| 20260506160047 | 12 | 302 | 6.4 | 24.1 | 0.00 | 2.41 | 0.58 | 53 | 1012.6 |
| 20260506154605 | 12 | 31 | 9.7 | 25.7 | 0.00 | 2.41 | 0.58 | 58 | 1012.2 |
| 20260506153043 | 12 | 308 | 9.7 | 22.5 | 0.00 | 2.41 | 0.58 | 63 | 1012.1 |
| 20260506151541 | 11 | 335 | 9.7 | 22.5 | 0.00 | 2.41 | 0.58 | 64 | 1012.2 |
| 20260506150038 | 11 | 298 | 16.1 | 20.9 | 0.00 | 2.41 | 0.58 | 65 | 1011.9 |
| 20260506144542 | 11 | 325 | 12.9 | 20.9 | 0.00 | 2.41 | 0.58 | 64 | 1011.7 |
| 20260506143034 | 11 | 334 | 12.9 | 19.3 | 0.00 | 2.41 | 0.58 | 72 | 1011.5 |
| 20260506141530 | 10 | 311 | 11.3 | 17.7 | 0.00 | 2.41 | 0.58 | 71 | 1011.5 |
| 20260506140033 | 10 | 315 | 11.3 | 17.7 | 0.00 | 2.41 | 0.58 | 76 | 1011.6 |
| 20260506134525 | 10 | 317 | 9.7 | 19.3 | 0.00 | 2.41 | 0.58 | 77 | 1011.5 |
| 20260506133025 | 9 | 307 | 16.1 | 19.3 | 0.00 | 2.41 | 0.58 | 78 | 1011.2 |
| 20260506131522 | 8 | 300 | 11.3 | 17.7 | 0.00 | 2.41 | 0.58 | 79 | 1011.1 |
| 20260506130018 | 8 | 323 | 9.7 | 17.7 | 0.00 | 2.41 | 0.58 | 78 | 1010.8 |
| 20260506124515 | 8 | 296 | 11.3 | 16.1 | 0.00 | 2.41 | 0.58 | 75 | 1010.7 |
| 20260506123012 | 7 | 294 | 11.3 | 16.1 | 0.00 | 2.41 | 0.58 | 68 | 1010.5 |
| 20260506121509 | 7 | 291 | 12.9 | 17.7 | 0.00 | 2.41 | 0.58 | 46 | 1010.2 |
| 20260506120007 | 6 | 289 | 9.7 | 14.5 | 0.00 | 2.41 | 0.58 | 39 | 1010.1 |
| 20260506114506 | 6 | 284 | 8.0 | 12.9 | 0.00 | 2.41 | 0.58 | 40 | 1009.8 |
| 20260506113003 | 6 | 281 | 6.4 | 11.3 | 0.00 | 2.41 | 0.58 | 40 | 1009.9 |
| 20260506111502 | 6 | 284 | 4.8 | 8.0 | 0.00 | 2.41 | 0.58 | 41 | 1009.9 |
| 20260506110059 | 6 | 273 | 6.4 | 12.9 | 0.00 | 2.41 | 0.58 | 41 | 1009.9 |
| 20260506104627 | 6 | 287 | 3.2 | 11.3 | 0.00 | 2.41 | 0.58 | 41 | 1008.9 |
| 20260506103055 | 6 | 296 | 6.4 | 12.9 | 0.00 | 2.41 | 0.58 | 41 | 1008.9 |
| 20260506101554 | 6 | 298 | 6.4 | 11.3 | 0.00 | 2.41 | 0.58 | 41 | 1008.8 |
| 20260506100053 | 6 | 263 | 3.2 | 6.4 | 0.00 | 2.41 | 0.58 | 41 | 1008.8 |
| 20260506094553 | 6 | 226 | 0.0 | 3.2 | 0.03 | 2.41 | 0.58 | 41 | 1008.3 |
| 20260506093052 | 6 | 226 | 1.6 | 4.8 | 0.03 | 2.41 | 0.58 | 41 | 1008.7 |
| 20260506091555 | 6 | 264 | 3.2 | 4.8 | 0.05 | 2.41 | 0.58 | 41 | 1009.0 |
| 20260506090051 | 6 | 252 | 3.2 | 4.8 | 0.05 | 2.41 | 0.58 | 41 | 1008.9 |
| 20260506084552 | 6 | 244 | 0.0 | 3.2 | 0.05 | 2.39 | 0.56 | 41 | 1008.7 |
| 20260506083050 | 6 | 274 | 3.2 | 4.8 | 0.08 | 2.39 | 0.56 | 41 | 1009.2 |
| 20260506081557 | 6 | 313 | 1.6 | 3.2 | 0.08 | 2.36 | 0.53 | 41 | 1008.7 |
| 20260506073049 | 6 | 313 | 0.0 | 0.0 | 0.08 | 2.31 | 0.48 | 40 | 1008.7 |
| 20260506071545 | 6 | 313 | 1.6 | 4.8 | 0.08 | 2.29 | 0.46 | 40 | 1009.1 |
| 20260506061540 | 7 | 329 | 6.4 | 12.9 | 0.18 | 2.21 | 0.38 | 40 | 1009.0 |
| 20260506044532 | 8 | 300 | 1.6 | 4.8 | 0.13 | 1.96 | 0.13 | 47 | 1008.6 |
| 20260506043026 | 8 | 277 | 3.2 | 4.8 | 0.13 | 1.93 | 0.10 | 50 | 1008.7 |
| 20260506041522 | 8 | 256 | 1.6 | 4.8 | 0.05 | 1.85 | 0.03 | 51 | 1008.6 |
| 20260506040028 | 8 | 252 | 1.6 | 3.2 | 0.08 | 1.83 | 0.00 | 51 | 1008.6 |
| 20260506034519 | 8 | 238 | 1.6 | 4.8 | 0.13 | 1.83 | 1.83 | 53 | 1008.5 |
| 20260506033021 | 8 | 252 | 1.6 | 3.2 | 0.15 | 1.80 | 1.80 | 50 | 1008.6 |
| 20260506031516 | 8 | 268 | 0.0 | 12.9 | 0.20 | 1.80 | 1.80 | 45 | 1008.6 |
| 20260506030020 | 8 | 226 | 0.0 | 6.4 | 0.23 | 1.75 | 1.75 | 45 | 1008.9 |
| 20260506024526 | 8 | 191 | 1.6 | 4.8 | 0.23 | 1.70 | 1.70 | 46 | 1009.1 |
| 20260506023014 | 8 | 261 | 0.0 | 3.2 | 0.23 | 1.65 | 1.65 | 48 | 1009.0 |
| 20260506021523 | 8 | 250 | 3.2 | 4.8 | 0.20 | 1.57 | 1.57 | 50 | 1008.9 |
| 20260506020012 | 8 | 233 | 3.2 | 6.4 | 0.18 | 1.52 | 1.52 | 50 | 1008.8 |
| 20260506014521 | 8 | 240 | 1.6 | 4.8 | 0.15 | 1.45 | 1.45 | 51 | 1008.6 |
| 20260506013009 | 8 | 247 | 1.6 | 4.8 | 0.15 | 1.42 | 1.42 | 51 | 1008.5 |
| 20260506011517 | 8 | 258 | 3.2 | 6.4 | 0.13 | 1.37 | 1.37 | 51 | 1008.3 |
| 20260506010011 | 8 | 277 | 1.6 | 4.8 | 0.15 | 1.35 | 1.35 | 53 | 1008.1 |
| 20260506004508 | 8 | 245 | 1.6 | 3.2 | 0.20 | 1.32 | 1.32 | 53 | 1008.1 |
| 20260506003004 | 8 | 245 | 0.0 | 4.8 | 0.20 | 1.27 | 1.27 | 56 | 1008.1 |
| 20260506001503 | 8 | 242 | 1.6 | 8.0 | 0.18 | 1.24 | 1.24 | 60 | 1008.1 |
| 20260506000002 | 9 | 240 | 3.2 | 6.4 | 0.13 | 1.17 | 1.17 | 61 | 1008.1 |
| 20260505234613 | 9 | 271 | 3.2 | 8.0 | 0.08 | 1.12 | 1.12 | 67 | 1008.1 |
| 20260505233059 | 9 | 298 | 1.6 | 3.2 | 0.03 | 1.07 | 1.07 | 63 | 1007.9 |
| 20260505231558 | 9 | 298 | 1.6 | 3.2 | 0.05 | 1.07 | 1.07 | 61 | 1007.9 |
| 20260505230057 | 9 | 348 | 1.6 | 4.8 | 0.08 | 1.04 | 1.04 | 55 | 1007.8 |
| 20260505224557 | 9 | 348 | 3.2 | 9.7 | 0.15 | 1.04 | 1.04 | 55 | 1007.7 |
| 20260505223106 | 9 | 324 | 8.0 | 12.9 | 0.28 | 1.04 | 1.04 | 61 | 1007.9 |
| 20260505221554 | 9 | 312 | 6.4 | 11.3 | 0.36 | 1.02 | 1.02 | 60 | 1007.9 |
| 20260505220051 | 10 | 309 | 4.8 | 11.3 | 0.38 | 0.97 | 0.97 | 48 | 1007.8 |
| 20260505214557 | 10 | 320 | 9.7 | 12.9 | 0.36 | 0.89 | 0.89 | 46 | 1007.5 |
| 20260505213052 | 10 | 315 | 9.7 | 16.1 | 0.28 | 0.76 | 0.76 | 50 | 1007.5 |
| 20260505211556 | 10 | 327 | 8.0 | 14.5 | 0.20 | 0.66 | 0.66 | 44 | 1007.5 |
| 20260505210046 | 10 | 314 | 12.9 | 14.5 | 0.15 | 0.58 | 0.58 | 39 | 1007.3 |
| 20260505204545 | 10 | 319 | 6.4 | 12.9 | 0.13 | 0.53 | 0.53 | 40 | 1007.1 |
| 20260505203100 | 10 | 300 | 8.0 | 14.5 | 0.08 | 0.48 | 0.48 | 40 | 1007.2 |
| 20260505201545 | 10 | 296 | 8.0 | 14.5 | 0.10 | 0.46 | 0.46 | 40 | 1007.4 |
| 20260505200042 | 10 | 287 | 6.4 | 14.5 | 0.13 | 0.43 | 0.43 | 40 | 1007.4 |
| 20260505194544 | 10 | 275 | 9.7 | 14.5 | 0.15 | 0.41 | 0.41 | 41 | 1007.9 |
| 20260505193041 | 10 | 282 | 8.0 | 17.7 | 0.20 | 0.41 | 0.41 | 42 | 1007.9 |
| 20260505191544 | 10 | 284 | 16.1 | 20.9 | 0.20 | 0.36 | 0.36 | 43 | 1008.2 |
| 20260505190041 | 11 | 282 | 14.5 | 17.7 | 0.18 | 0.30 | 0.30 | 42 | 1007.6 |
| 20260505184543 | 11 | 266 | 11.3 | 16.1 | 0.18 | 0.25 | 0.25 | 43 | 1007.5 |
| 20260505183036 | 12 | 269 | 6.4 | 12.9 | 0.18 | 0.20 | 0.20 | 41 | 1007.4 |
| 20260505181524 | 12 | 262 | 6.4 | 9.7 | 0.15 | 0.15 | 0.15 | 43 | 1007.1 |